Regional Weather Roundup
Issued by NWS

Home | Current Version | Previous Version | Text Only | Print | Product List | Glossary Off
Versions: 1 2 3 4 5 6 7 8 9 10 11 12 13 14 15 16 17 18 19 20 21 22 23 24 25 26 27 28 29 30 31 32 33 34 35 36 37 38 39 40 41 42 43 44 45 46 47 48 49 50

000
ASUS43 KDMX 200307
RWRIA

WEATHER ROUNDUP FOR IOWA
NATIONAL WEATHER SERVICE DES MOINES IA
900 PM CST FRI DEC 19 2014

NOTE: "FAIR" INDICATES FEW OR NO CLOUDS BELOW 12,000 FEET WITH NO
SIGNIFICANT WEATHER AND/OR OBSTRUCTIONS TO VISIBILITY.

* - THESE STATIONS ARE NOT NWS STATIONS...THUS NOT UNDER NWS
QUALITY CONTROL.  THEY ALSO DO NOT REPORT WEATHER SUCH
AS PRECIPITATION OR FOG.

IAZ001>003-012>014-020>022-031>034-043>046-200400-
   NORTHWEST IOWA

CITY           SKY/WX    TMP DP  RH WIND       PRES   REMARKS
CARROLL *      CLOUDY    30  30 100 S9        30.15S FOG     WCI  22
CHEROKEE *     CLOUDY    31  30  93 S8        30.12S FOG     WCI  24
DENISON *      CLOUDY    30  30 100 S12       30.12F WCI  21
LE MARS *      CLOUDY    32  28  86 S9        30.11S WCI  24
ORANGE CITY *  CLOUDY    32  28  86 S8        30.09S WCI  25
SHELDON *      CLOUDY    30  30 100 S12       30.09S WCI  21
SIOUX CITY     CLOUDY    33  28  81 SE7       30.11F WCI  27
SPENCER        CLOUDY    32  28  85 S9        30.11F WCI  24
STORM LAKE *   CLOUDY    30  30 100 S10       30.12F FOG     WCI  21
$$

IAZ055>058-069>071-079>083-090>094-200400-
   SOUTHWEST IOWA

CITY           SKY/WX    TMP DP  RH WIND       PRES   REMARKS
ATLANTIC *     CLOUDY    30  28  93 S8        30.16S WCI  23
AUDUBON *      CLOUDY    28  23  80 S8        30.16S HAZE    WCI  20
CLARINDA *     LGT SNOW  30  30 100 S3        30.21S
COUNCIL BLFS * CLOUDY    30  30 100 S9        30.13S FOG     WCI  22
CRESTON *      CLOUDY    28  28 100 S12       30.18S FOG     WCI  18
HARLAN  *      CLOUDY    30  30 100 S9        30.18S WCI  22
LAMONI         CLOUDY    31  30  96 S5        30.19S FOG     WCI  26
RED OAK *      CLOUDY    30  28  93 S8        30.17F WCI  23
SHENANDOAH *   CLOUDY    30  28  93 S7        30.19S WCI  23
$$

IAZ047>049-059>061-072>074-084-200400-
   CENTRAL IOWA

CITY           SKY/WX    TMP DP  RH WIND       PRES   REMARKS
AMES           CLOUDY    30  27  88 S8        30.19S FOG     WCI  22
ANKENY *       CLOUDY    30  30 100 SE8       30.20S FOG     WCI  23
CHARITON *     CLOUDY    32  32 100 S7        30.20S FOG     WCI  26
DES MOINES     CLOUDY    32  29  88 SE9       30.20S FOG     WCI  24
GRINNELL*      CLOUDY    29  26  88 SE9       30.22S WCI  21
KNOXVILLE *    CLOUDY    30  28  93 SE8       30.20S FOG     WCI  23
MARSHALLTOWN   CLOUDY    29  25  85 SE10      30.20R WCI  20
PELLA *        CLOUDY    30  27  88 SE6       30.24R FOG     WCI  24
PERRY *        CLOUDY    32  31  97 S8        30.18S FOG     WCI  25
$$

IAZ004>006-015-016-023>025-035-036-200400-
   NORTH CENTRAL IOWA

CITY           SKY/WX    TMP DP  RH WIND       PRES   REMARKS
ALGONA *       CLOUDY    30  32 100 S12       30.15S FOG     WCI  21
CLARION *      CLOUDY    30  30 100 S10       30.17S FOG     WCI  21
ESTHERVILLE    CLOUDY    30  29  96 S12       30.11F WCI  20
FORT DODGE *   CLOUDY    30  27  86 S7        30.17S WCI  23
MASON CITY     CLOUDY    28  25  88 S12       30.19R WCI  18
FOREST CITY *  CLOUDY    30  28  93 S10       30.16S WCI  21
IOWA FALLS *   CLOUDY    29  27  89 SE9       30.19S WCI  21
$$

IAZ007>011-017>019-026>030-037>042-050>054-066-200400-
   NORTHEAST IOWA

CITY           SKY/WX    TMP DP  RH WIND       PRES   REMARKS
CEDAR RAPIDS   CLOUDY    29  23  78 S5        30.22S WCI  24
CHARLES CITY * CLOUDY    28  25  86 SE8       30.20R WCI  20
CLINTON *      CLOUDY    25  19  80 SE6       30.28F WCI  18
DECORAH *      CLOUDY    27  23  86 SE6       30.20S WCI  20
DUBUQUE        CLOUDY    23  20  88 S6        30.23F WCI  16
MONTICELLO *   CLOUDY    28  25  86 SE6       30.24S WCI  22
OELWEIN *      CLOUDY    28  23  80 SE10      30.21S WCI  19
WATERLOO       CLOUDY    29  23  78 SE10      30.21R WCI  20
$$

IAZ064-065-067-068-078-200400-
   EAST CENTRAL IOWA

CITY           SKY/WX    TMP DP  RH WIND       PRES   REMARKS
DAVENPORT      CLOUDY    27  21  78 E7        30.26S WCI  19
IOWA CITY      CLOUDY    30  23  75 SE3       30.26S
MT. PLEASANT * CLOUDY    29  26  86 CALM      30.25S
MUSCATINE *    CLOUDY    32  23  69 SE5       30.27R WCI  27
QUAD CITIES    CLOUDY    28  23  81 E8        30.26F WCI  20
$$

IAZ062-063-075>077-085>089-095>099-200400-
   SOUTHEAST IOWA

CITY           SKY/WX    TMP DP  RH WIND       PRES   REMARKS
BURLINGTON     CLOUDY    31  24  75 SE5       30.25S WCI  26
FAIRFIELD *    CLOUDY    30  27  86 SE7       30.24S WCI  23
FORT MADISON * CLOUDY    34  28  80 SE3       30.26S
KEOKUK *       CLOUDY    32  28  86 SE5       30.25R WCI  27
OSKALOOSA *    CLOUDY    29  27  92 SE6       30.24R FOG     WCI  23
CENTERVILLE *  CLOUDY    32  32 100 SE6       30.23R WCI  26
OTTUMWA        CLOUDY    30  25  81 SE7       30.23S WCI  23
WASHINGTON *   CLOUDY    30  30 100 E5        30.24F WCI  25
$$

ABBREVIATIONS USED IN REMARKS
   TC - TEMPERATURES IN CELSIUS
  WCI - WIND CHILL INDEX
   HX - HEAT INDEX
  VSB - VISIBILITY
$$



USA.gov is the U.S. government's official web portal to all federal, state and local government web resources and services.